STARLINK-4543, 53429

Orbit data source: Space-Track

STARLINK-4543, 53429 is a payload satellite owned by SpaceX/Seattle (US) in LEO that was launched on Wed, 10 Aug 2022 UTC via an FALCON 9 launch vehicle from the Air Force Eastern Test Range (AFETR). Payload-class satellites include a variety of spacecraft equipped with specific instruments for various scientific and technological missions. These include communications satellites like Starlink; space stations such as the ISS; scientific satellites like the Hubble; Earth observation satellites from companies like Planet Labs, Umbra, and HawkEye 360; GPS; miniature CubeSats for education and research; and military/defense satellites.

Loading next visibility...
Identifier
53429, 2022-097AT
Orbit
LEO
Country
Flag of USUS
Related business
Manufacturer
SpaceX/Seattle
Mission
Operational Commercial Communications
Bus & Motor
STARLINK, Unknown motor
Mass
297 kg wet, ~275 kg dry
Launch date (UTC)
2022-08-10 (4 years ago)
Launch vehicle
FALCON 9
Launch site
Air Force Eastern Test Range (AFETR)
Object type
Payload
Rocket body
Debris
Shape & HBR
Box + 1 Pan, 10.1 m
Radar Cross Section
13.562 m², Large (>1 m²)

Expand to show TLE details & history
Last TLE update: 19 hours ago

TLE from 19 hours ago
0 STARLINK-4543
1 53429U 22097AT  26144.21319875  .00000013  00000-0  18914-4 0  9997
2 53429  53.2166 125.1976 0001179  76.1057 284.0067 15.08843556210187
Epoch: 2026-05-24T05:07Z
TLE epoch observation values (Epoch: 2026-05-24T05:07:00.372Z)
Latitude
0.00001°
Longitude
166.62749°
Altitude
540.433 km
Speed
7.593 km/s
True Right ascension
08h 20m 47s
True Declination
0° 00' 00"
Sunlit
Object was in daylight at epoch
Visualization orbit readout
Latitude
Unknown
Longitude
Unknown
Altitude
Unknown
Speed
Unknown
Apparent Right ascension
Unknown
Apparent Declination
Unknown
Sunlit
N/A
Visualization observer readout
Local Sidereal Time
09:25:21
Azimuth
Unknown
Elevation
Unknown
Doppler factor
Unknown
Orbital elements
Apogee altitude
540.793 km
Perigee altitude
539.162 km
Semi-major axis
6,918.115 km
Eccentricity
0.00012
Inclination
53.2166°
RAAN
125.1976°
Arg. of periapsis
76.1057°
True anomaly
283.99359°
Mean anomaly
284.0067°
Eccentric anomaly
284.00015°
Mean motion
3.77191 °/min
Orbital period
95.44 mins
BSTAR
0.000018914
Loading maneuver chart data...
Computing Atmospheric mass density...
Loading historical data...
Loading historical data...
Loading historical data...
Loading historical data...
Loading historical data...
Loading historical data...
Loading historical data...

Documentation

Showing up to 5 results
|